This is the latest recevied weather packets stored in our database for station/object N0HOT. If no packets are shown the sender has not sent any weather packets the latest 10 day(s).
| Time | Temp. | Humidity | Pressure | Rain* | Wind** | Luminosity | Snow |
|---|---|---|---|---|---|---|---|
| 1777838130 | 24.44° C | 25% | 1003.8 hPa | 0 mm | - | 770 W/m² | - |
| 1777837827 | 24.44° C | 23% | 1003.8 hPa | 0 mm | - | 739 W/m² | - |
| 1777837524 | 24.44° C | 23% | 1004.2 hPa | 0 mm | - | 755 W/m² | - |
| 1777837224 | 24.44° C | 26% | 1003.8 hPa | 0 mm | - | 771 W/m² | - |
| 1777836921 | 24.44° C | 24% | 1004.2 hPa | 0 mm | - | 762 W/m² | - |
| 1777836616 | 24.44° C | 24% | 1003.5 hPa | 0 mm | - | 789 W/m² | - |
| 1777836312 | 24.44° C | 24% | 1003.8 hPa | 0 mm | - | 808 W/m² | - |
| 1777836008 | 24.44° C | 24% | 1003.8 hPa | 0 mm | - | 838 W/m² | - |
| 1777835706 | 24.44° C | 24% | 1003.8 hPa | 0 mm | - | 830 W/m² | - |
| 1777835402 | 24.44° C | 24% | 1003.8 hPa | 0 mm | - | 852 W/m² | - |
| 1777835099 | 25° C | 25% | 1004.2 hPa | 0 mm | - | 859 W/m² | - |
| 1777834796 | 25° C | 24% | 1004.2 hPa | 0 mm | - | 862 W/m² | - |
| 1777834492 | 25° C | 24% | 1004.2 hPa | 0 mm | - | 859 W/m² | - |
| 1777834192 | 24.44° C | 27% | 1004.2 hPa | 0 mm | - | 868 W/m² | - |
| 1777833889 | 24.44° C | 24% | 1004.2 hPa | 0 mm | - | 874 W/m² | - |
| 1777833585 | 23.89° C | 25% | 1004.2 hPa | 0 mm | - | 861 W/m² | - |
| 1777833282 | 23.89° C | 25% | 1004.2 hPa | 0 mm | - | 862 W/m² | - |
| 1777832978 | 23.89° C | 25% | 1004.5 hPa | 0 mm | - | 871 W/m² | - |
| 1777832678 | 23.89° C | 25% | 1004.5 hPa | 0 mm | - | 879 W/m² | - |
| 1777832375 | 23.33° C | 25% | 1004.5 hPa | 0 mm | - | 872 W/m² | - |
| 1777832072 | 23.33° C | 28% | 1004.8 hPa | 0 mm | - | 880 W/m² | - |
| 1777831767 | 23.89° C | 26% | 1004.5 hPa | 0 mm | - | 897 W/m² | - |
| 1777831466 | 23.89° C | 26% | 1004.8 hPa | 0 mm | - | 859 W/m² | - |
| 1777831162 | 23.89° C | 27% | 1004.8 hPa | 0 mm | - | 835 W/m² | - |
| 1777830861 | 23.89° C | 26% | 1004.8 hPa | 0 mm | - | 866 W/m² | - |
* Rain latest hour (hover to see other rain measurements)
** Current wind speed in m/s (hover to see current wind gust speed)